DW4662 Weather Reports


time (UTC)temp
F
wind
direction
speed
knots
gust
knots
rain 1hr
in
rain 24hr
in
rain mn
in
humidity
%
barometer
mb
20260507073510 49 190 0.0 0.0 0.00 0.24 0.24 90 1012.4
20260507071511 48 229 0.0 0.0 0.00 0.24 0.24 90 1012.2
20260507070511 48 187 0.0 0.0 0.00 0.24 0.24 90 1012.1
20260507064511 48 229 0.0 0.0 0.00 0.24 0.24 90 1011.9
20260507063522 48 238 0.0 0.0 0.00 0.24 0.24 90 1011.9
20260507062511 48 236 0.0 0.0 0.00 0.24 0.24 90 1011.8
20260507061511 48 209 0.0 0.0 0.00 0.24 0.24 90 1011.8
20260507060512 48 202 0.0 0.0 0.00 0.24 0.24 91 1011.7
20260507055511 48 241 0.0 0.0 0.00 0.24 0.24 90 1011.5
20260507054512 47 188 0.0 0.0 0.00 0.24 0.24 90 1011.4
20260507053511 47 221 0.0 0.0 0.00 0.24 0.24 90 1011.4
20260507052511 47 189 0.0 0.0 0.00 0.24 0.24 90 1011.3
20260507051511 47 214 0.0 0.0 0.00 0.24 0.24 90 1011.2
20260507050511 46 244 0.0 0.0 0.00 0.24 0.24 90 1011.0
20260507045512 46 197 0.0 0.0 0.00 0.24 0.24 90 1011.0
20260507044511 46 202 0.0 0.0 0.00 0.24 0.24 90 1010.9
20260507043511 46 248 0.0 0.0 0.00 0.24 0.24 90 1010.7
20260507042510 46 240 0.0 0.0 0.00 0.24 0.24 90 1010.5
20260507041510 45 219 0.0 0.0 0.00 0.24 0.24 90 1010.5
20260507040510 45 219 0.0 0.0 0.00 0.24 0.24 90 1010.4
20260507035510 45 226 0.0 0.0 0.00 0.24 0.24 90 1010.3
20260507034510 45 227 0.0 0.0 0.00 0.24 0.24 90 1010.3
20260507033510 44 228 0.0 0.0 0.00 0.24 0.24 90 1010.2
20260507032510 44 229 0.0 0.0 0.00 0.24 0.24 90 1010.1
20260507030510 44 201 0.0 0.0 0.00 0.24 0.24 90 1009.9
20260507025510 44 215 0.0 0.0 0.00 0.24 0.24 90 1009.9
20260507024510 45 219 0.0 0.0 0.00 0.24 0.24 90 1010.0
20260507023510 45 242 0.0 0.0 0.00 0.24 0.24 90 1009.7
20260507022511 45 189 0.0 0.0 0.00 0.24 0.24 90 1009.7
20260507021510 45 221 0.0 0.0 0.00 0.24 0.24 90 1009.7
20260507020510 45 205 0.0 0.0 0.00 0.24 0.24 90 1009.7
20260507015510 45 209 0.0 0.0 0.00 0.24 0.24 90 1009.6
20260507014510 45 230 0.0 0.0 0.00 0.24 0.24 90 1009.5
20260507013510 45 215 0.0 0.0 0.00 0.24 0.24 90 1009.5
20260507012511 45 198 0.0 0.0 0.00 0.24 0.24 90 1009.6
20260507011510 45 232 0.0 0.0 0.00 0.24 0.24 90 1009.4
20260507010510 45 211 0.0 0.0 0.00 0.24 0.24 90 1009.3
20260507005510 45 208 0.0 0.0 0.24 0.24 0.24 90 1009.4
20260507004510 45 198 0.0 0.0 0.24 0.24 0.24 90 1009.3
20260507003510 45 215 0.0 0.0 0.24 0.24 0.24 90 1009.4
20260507002511 45 207 0.0 0.0 0.24 0.24 0.24 90 1009.4
20260507001510 45 191 0.0 0.0 0.24 0.24 0.24 90 1009.3
20260507000510 45 191 0.0 0.0 0.24 0.24 0.24 90 1009.4
20260506235510 46 190 0.0 0.0 0.00 0.00 0.00 89 1009.3
20260506233510 46 205 0.0 0.0 0.00 0.00 0.00 89 1009.3
20260506231510 46 205 0.0 0.0 0.00 0.00 0.00 88 1009.3
20260506230510 46 205 0.0 0.0 0.00 0.00 0.00 89 1009.3
20260506225510 47 194 0.0 0.0 0.00 0.00 0.00 88 1009.3
20260506224510 47 203 0.0 0.0 0.00 0.00 0.00 88 1009.3
20260506223510 47 204 0.0 0.0 0.00 0.00 0.00 88 1009.2
20260506222510 47 190 0.0 0.0 0.00 0.00 0.00 88 1009.2
20260506221524 47 200 0.0 0.0 0.00 0.00 0.00 88 1009.1
20260506215510 47 196 0.0 0.0 0.00 0.45 0.45 88 1009.0
20260506214510 47 194 0.0 0.0 0.00 0.45 0.45 88 1008.8
20260506213511 47 186 0.0 0.0 0.00 0.45 0.45 88 1008.8
20260506211510 47 185 0.0 0.0 0.00 0.45 0.45 88 1008.6
20260506210510 48 194 0.0 0.0 0.00 0.45 0.45 88 1008.6
20260506205510 48 184 0.0 0.0 0.00 0.45 0.45 88 1008.4
20260506204511 48 206 0.0 0.0 0.00 0.45 0.45 88 1008.5
20260506203510 48 182 0.0 0.0 0.00 0.45 0.45 88 1008.6
20260506202510 48 212 0.0 0.0 0.00 0.45 0.45 88 1008.5
20260506201510 48 202 0.0 2.6 0.00 0.45 0.45 88 1008.5
20260506194510 48 223 0.0 7.8 0.00 0.45 0.45 88 1008.4
20260506193510 48 195 0.0 0.9 0.00 0.45 0.45 88 1008.0
20260506192510 48 200 0.0 0.0 0.00 0.45 0.45 88 1007.9
20260506191510 48 198 0.0 0.0 0.00 0.45 0.45 89 1007.9
20260506190510 48 207 0.0 0.0 0.00 0.45 0.45 89 1007.7
20260506185510 49 223 0.0 0.0 0.00 0.45 0.45 89 1007.5
20260506184510 49 212 0.0 0.0 0.00 0.45 0.45 89 1007.5
20260506183510 49 215 0.0 0.0 0.00 0.45 0.45 89 1007.2
20260506181510 49 211 0.0 0.9 0.00 0.45 0.45 89 1007.2
20260506180511 49 232 0.0 2.6 0.00 0.45 0.45 89 1007.0
20260506175523 49 250 0.0 0.0 0.00 0.45 0.45 89 1006.9
20260506174510 49 192 0.0 0.0 0.00 0.45 0.45 89 1006.7
20260506173510 49 227 0.0 0.0 0.00 0.45 0.45 88 1006.7
20260506172510 49 194 0.0 2.6 0.01 0.45 0.45 88 1006.5
20260506171510 50 218 0.0 0.9 0.02 0.45 0.45 89 1006.4
20260506164510 49 236 0.0 0.0 0.02 0.45 0.45 88 1006.1
20260506163510 49 225 0.0 0.0 0.12 0.45 0.45 88 1006.1
20260506162510 50 234 0.0 0.0 0.13 0.44 0.44 88 1006.1
20260506161511 50 251 0.0 0.0 0.39 0.43 0.43 87 1006.0
20260506160511 50 250 0.0 0.0 0.42 0.43 0.43 86 1006.0
20260506155510 51 199 0.0 0.0 0.42 0.43 0.43 86 1006.0
20260506154510 52 278 0.0 0.0 0.42 0.43 0.43 85 1006.0
20260506153510 53 230 0.0 0.0 0.31 0.33 0.33 83 1005.7
20260506152510 55 222 0.0 20.9 0.29 0.31 0.31 80 1005.2
20260506151510 60 192 16.5 23.5 0.03 0.05 0.05 72 1004.6
20260506150510 62 223 1.7 4.3 0.00 0.02 0.02 65 1003.7
20260506145510 62 200 0.0 5.2 0.00 0.02 0.02 64 1003.4
20260506143510 65 152 1.7 6.1 0.00 0.02 0.02 63 1003.6
20260506142510 66 192 2.6 6.1 0.00 0.02 0.02 61 1003.6
20260506141510 64 244 0.0 5.2 0.01 0.02 0.02 66 1003.6
20260506140510 62 258 0.0 3.5 0.01 0.02 0.02 73 1003.6
20260506135510 62 258 0.0 0.0 0.01 0.02 0.02 73 1003.7
20260506134510 62 258 0.0 3.5 0.01 0.02 0.02 71 1003.9
20260506133510 62 258 0.0 0.0 0.01 0.02 0.02 70 1004.1
20260506132510 62 258 0.0 0.0 0.01 0.02 0.02 69 1004.1
20260506131510 63 259 0.0 5.2 0.00 0.01 0.01 64 1004.0
20260506130510 63 261 1.7 4.3 0.00 0.01 0.01 64 1003.9
20260506125510 63 261 3.5 5.2 0.00 0.01 0.01 65 1003.8
20260506124510 63 299 0.0 4.3 0.00 0.01 0.01 66 1003.8
20260506123510 63 298 1.7 4.3 0.00 0.01 0.01 66 1003.7
20260506122510 63 300 0.0 4.3 0.00 0.01 0.01 66 1003.7
20260506121510 63 298 0.0 4.3 0.00 0.01 0.01 66 1003.8
20260506120510 63 296 0.0 5.2 0.00 0.01 0.01 65 1003.7
20260506115510 63 304 1.7 4.3 0.00 0.01 0.01 65 1003.8
20260506114510 64 294 0.0 4.3 0.00 0.01 0.01 64 1003.9
20260506113510 64 315 0.0 7.0 0.00 0.01 0.01 64 1003.9
20260506111510 64 313 3.5 5.2 0.00 0.01 0.01 64 1003.9
20260506110510 64 317 2.6 4.3 0.00 0.01 0.01 69 1004.1
20260506104511 62 355 1.7 7.0 0.00 0.01 0.01 69 1004.2
20260506103510 61 335 3.5 6.1 0.00 0.01 0.01 68 1004.3
20260506102510 61 317 2.6 5.2 0.00 0.01 0.01 68 1004.4
20260506101510 61 242 0.0 0.0 0.00 0.01 0.01 66 1004.8
20260506100510 61 173 0.0 0.0 0.00 0.01 0.01 66 1004.9
20260506095510 62 173 0.0 0.0 0.00 0.01 0.01 67 1004.9
20260506094510 62 173 0.0 0.0 0.00 0.01 0.01 66 1004.9
20260506093510 62 173 0.0 0.0 0.00 0.01 0.01 68 1004.9
20260506092510 62 173 0.0 0.0 0.00 0.01 0.01 68 1004.9
20260506091510 61 173 0.0 0.0 0.00 0.01 0.01 70 1004.9
20260506090510 60 173 0.0 0.0 0.00 0.01 0.01 71 1004.9
20260506085510 60 173 0.0 0.0 0.00 0.01 0.01 74 1004.9
20260506084510 58 173 0.0 0.0 0.00 0.01 0.01 75 1004.8
20260506081510 57 173 0.0 0.0 0.00 0.01 0.01 79 1004.9
20260506080510 56 173 0.0 0.0 0.00 0.01 0.01 79 1004.9